Location: Igon
(43.1667°N, 0.2333°W)
Time: 14:15:00
(UTC+00:00)

NOAA 6 - Pass Details

Date: 29 November 2020
Orbit: 773 x 786 km, 98.7° (Epoch: 24 January)

Event Time Altitude Azimuth Distance (km) Brightness Sun altitude
Rises 06:05:32 0° 13° (NNE) 3,260 7.2 -11.7°
Reaches altitude 10° 06:07:51 10° 13° (NNE) 2,328 6.4 -11.3°
Maximum altitude 06:13:00 89° 289° (WNW) 779 4.0 -10.5°
Drops below altitude 10° 06:18:07 10° 196° (SSW) 2,312 6.6 -9.6°
Sets 06:20:24 0° 196° (SSW) 3,236 7.3 -9.2°
